| time (UTC) | temp F | wind direction | speed MPH | gust MPH | rain 1hr in | rain 24hr in | rain mn in | humidity % | barometer mb |
| 20260506154610 | 65 | 360 | 2.0 | 5.0 | 0.00 | 0.00 | 0.00 | 69 | 1012.8 |
| 20260506153052 | 65 | 236 | 2.0 | 5.0 | 0.00 | 0.00 | 0.00 | 70 | 1013.0 |
| 20260506151551 | 65 | 360 | 4.0 | 8.0 | 0.00 | 0.00 | 0.00 | 69 | 1012.9 |
| 20260506150053 | 65 | 360 | 2.0 | 8.0 | 0.00 | 0.00 | 0.00 | 70 | 1013.0 |
| 20260506144600 | 66 | 297 | 3.0 | 9.0 | 0.00 | 0.00 | 0.00 | 68 | 1013.0 |
| 20260506143051 | 67 | 360 | 2.0 | 12.0 | 0.00 | 0.00 | 0.00 | 65 | 1013.0 |
| 20260506141551 | 68 | 360 | 3.0 | 10.0 | 0.00 | 0.00 | 0.00 | 67 | 1013.0 |
| 20260506140059 | 67 | 246 | 6.0 | 10.0 | 0.00 | 0.00 | 0.00 | 67 | 1012.9 |
| 20260506134549 | 68 | 235 | 3.0 | 9.0 | 0.00 | 0.00 | 0.00 | 66 | 1012.8 |
| 20260506133053 | 69 | 267 | 4.0 | 9.0 | 0.00 | 0.00 | 0.00 | 63 | 1012.9 |
| 20260506131548 | 69 | 136 | 4.0 | 8.0 | 0.00 | 0.00 | 0.00 | 62 | 1012.7 |
| 20260506130049 | 70 | 198 | 4.0 | 8.0 | 0.00 | 0.00 | 0.00 | 60 | 1012.8 |
| 20260506124547 | 70 | 219 | 4.0 | 9.0 | 0.00 | 0.00 | 0.00 | 56 | 1012.7 |
| 20260506123044 | 70 | 236 | 4.0 | 7.0 | 0.00 | 0.00 | 0.00 | 58 | 1012.6 |
| 20260506121542 | 69 | 171 | 3.0 | 6.0 | 0.00 | 0.00 | 0.00 | 61 | 1012.7 |
| 20260506120045 | 69 | 204 | 4.0 | 8.0 | 0.00 | 0.00 | 0.00 | 59 | 1013.0 |
| 20260506114541 | 69 | 208 | 4.0 | 10.0 | 0.00 | 0.00 | 0.00 | 59 | 1013.2 |
| 20260506113046 | 69 | 235 | 3.0 | 7.0 | 0.00 | 0.00 | 0.00 | 59 | 1013.1 |
| 20260506111537 | 68 | 196 | 3.0 | 6.0 | 0.00 | 0.00 | 0.00 | 59 | 1013.1 |
| 20260506110037 | 67 | 250 | 2.0 | 7.0 | 0.00 | 0.00 | 0.00 | 60 | 1013.1 |
| 20260506104545 | 67 | 229 | 3.0 | 8.0 | 0.00 | 0.00 | 0.00 | 59 | 1013.1 |
| 20260506103037 | 68 | 209 | 2.0 | 5.0 | 0.00 | 0.00 | 0.00 | 58 | 1013.1 |
| 20260506101544 | 67 | 187 | 2.0 | 6.0 | 0.00 | 0.00 | 0.00 | 59 | 1013.1 |
| 20260506100033 | 67 | 246 | 2.0 | 8.0 | 0.00 | 0.00 | 0.00 | 59 | 1013.4 |
| 20260506094529 | 66 | 199 | 2.0 | 5.0 | 0.00 | 0.01 | 0.00 | 58 | 1013.6 |
| 20260506093024 | 65 | 179 | 1.0 | 5.0 | 0.00 | 0.01 | 0.00 | 59 | 1013.6 |
| 20260506091523 | 65 | 157 | 1.0 | 3.0 | 0.00 | 0.01 | 0.00 | 61 | 1013.4 |
| 20260506090021 | 64 | 147 | 0.0 | 3.0 | 0.00 | 0.01 | 0.00 | 61 | 1013.3 |
| 20260506084532 | 64 | 145 | 2.0 | 4.0 | 0.00 | 0.01 | 0.00 | 59 | 1013.1 |
| 20260506083018 | 63 | 42 | 0.0 | 2.0 | 0.00 | 0.01 | 0.00 | 62 | 1012.9 |
| 20260506081517 | 62 | 43 | 1.0 | 3.0 | 0.00 | 0.01 | 0.00 | 66 | 1012.8 |
| 20260506073008 | 61 | 38 | 1.0 | 3.0 | 0.00 | 0.01 | 0.00 | 69 | 1013.4 |
| 20260506071508 | 60 | 245 | 0.0 | 3.0 | 0.00 | 0.01 | 0.00 | 71 | 1013.6 |
| 20260506061506 | 60 | 26 | 0.0 | 1.0 | 0.00 | 0.01 | 0.00 | 69 | 1013.7 |
| 20260506044502 | 59 | 28 | 0.0 | 0.0 | 0.00 | 0.01 | 0.00 | 72 | 1013.4 |
| 20260506043002 | 59 | 25 | 0.0 | 0.0 | 0.00 | 0.01 | 0.00 | 72 | 1013.3 |
| 20260506041500 | 59 | 28 | 0.0 | 0.0 | 0.00 | 0.01 | 0.00 | 71 | 1013.1 |
| 20260506040001 | 59 | 26 | 0.0 | 1.0 | 0.00 | 0.01 | 0.00 | 70 | 1013.0 |
| 20260506034600 | 59 | 27 | 0.0 | 1.0 | 0.00 | 0.02 | 0.00 | 70 | 1013.0 |
| 20260506033059 | 59 | 24 | 0.0 | 0.0 | 0.00 | 0.02 | 0.00 | 70 | 1013.1 |
| 20260506031559 | 59 | 25 | 0.0 | 1.0 | 0.00 | 0.02 | 0.00 | 69 | 1013.1 |
| 20260506030100 | 60 | 22 | 0.0 | 1.0 | 0.00 | 0.02 | 0.00 | 68 | 1013.1 |
| 20260506024601 | 60 | 26 | 0.0 | 2.0 | 0.00 | 0.02 | 0.00 | 66 | 1013.0 |
| 20260506023100 | 60 | 27 | 0.0 | 1.0 | 0.00 | 0.02 | 0.00 | 65 | 1013.2 |
| 20260506021606 | 60 | 22 | 0.0 | 1.0 | 0.00 | 0.02 | 0.00 | 64 | 1013.4 |
| 20260506020054 | 61 | 25 | 0.0 | 0.0 | 0.00 | 0.02 | 0.00 | 62 | 1013.4 |
| 20260506014553 | 61 | 26 | 0.0 | 1.0 | 0.00 | 0.02 | 0.00 | 61 | 1013.4 |
| 20260506013057 | 61 | 360 | 1.0 | 4.0 | 0.00 | 0.02 | 0.00 | 61 | 1013.3 |
| 20260506011551 | 61 | 22 | 1.0 | 4.0 | 0.00 | 0.02 | 0.00 | 60 | 1013.3 |
| 20260506010057 | 60 | 14 | 0.0 | 3.0 | 0.00 | 0.02 | 0.00 | 63 | 1013.6 |
| 20260506004549 | 59 | 360 | 0.0 | 0.0 | 0.00 | 0.02 | 0.00 | 65 | 1013.6 |
| 20260506003044 | 59 | 360 | 0.0 | 1.0 | 0.00 | 0.02 | 0.00 | 66 | 1013.8 |
| 20260506001546 | 59 | 360 | 0.0 | 0.0 | 0.00 | 0.02 | 0.00 | 68 | 1013.9 |
| 20260506000039 | 59 | 225 | 0.0 | 0.0 | 0.00 | 0.02 | 0.00 | 69 | 1014.0 |
| 20260505234559 | 59 | 360 | 0.0 | 0.0 | 0.00 | 0.02 | 0.00 | 72 | 1014.1 |
| 20260505233040 | 59 | 225 | 0.0 | 2.0 | 0.00 | 0.02 | 0.00 | 74 | 1014.1 |
| 20260505231535 | 59 | 225 | 0.0 | 0.0 | 0.00 | 0.02 | 0.00 | 73 | 1014.2 |
| 20260505230032 | 59 | 225 | 0.0 | 0.0 | 0.00 | 0.02 | 0.00 | 73 | 1014.3 |
| 20260505224532 | 59 | 360 | 0.0 | 0.0 | 0.00 | 0.02 | 0.00 | 72 | 1014.5 |
| 20260505223023 | 59 | 360 | 0.0 | 0.0 | 0.00 | 0.02 | 0.00 | 72 | 1014.7 |
| 20260505221522 | 59 | 360 | 0.0 | 0.0 | 0.00 | 0.02 | 0.00 | 71 | 1014.8 |
| 20260505220016 | 59 | 360 | 0.0 | 1.0 | 0.00 | 0.02 | 0.00 | 71 | 1014.8 |
| 20260505214525 | 59 | 225 | 0.0 | 0.0 | 0.00 | 0.02 | 0.02 | 71 | 1015.1 |
| 20260505213015 | 59 | 225 | 0.0 | 0.0 | 0.00 | 0.02 | 0.02 | 70 | 1015.1 |
| 20260505211515 | 59 | 360 | 0.0 | 0.0 | 0.00 | 0.02 | 0.02 | 70 | 1015.2 |
| 20260505210014 | 59 | 360 | 0.0 | 2.0 | 0.00 | 0.02 | 0.02 | 71 | 1015.5 |
| 20260505204516 | 59 | 225 | 0.0 | 0.0 | 0.00 | 0.02 | 0.02 | 70 | 1015.5 |
| 20260505203022 | 59 | 225 | 0.0 | 0.0 | 0.00 | 0.02 | 0.02 | 69 | 1015.5 |
| 20260505201522 | 59 | 360 | 0.0 | 0.0 | 0.00 | 0.02 | 0.02 | 69 | 1015.6 |
| 20260505200013 | 59 | 360 | 0.0 | 1.0 | 0.00 | 0.02 | 0.02 | 69 | 1015.5 |
| 20260505194514 | 59 | 360 | 0.0 | 1.0 | 0.00 | 0.02 | 0.02 | 69 | 1015.6 |
| 20260505193012 | 59 | 360 | 0.0 | 1.0 | 0.00 | 0.02 | 0.02 | 68 | 1015.4 |
| 20260505191511 | 59 | 360 | 0.0 | 1.0 | 0.00 | 0.02 | 0.02 | 67 | 1015.2 |
| 20260505190014 | 59 | 360 | 0.0 | 1.0 | 0.00 | 0.02 | 0.02 | 66 | 1015.0 |
| 20260505184511 | 59 | 225 | 0.0 | 1.0 | 0.00 | 0.02 | 0.02 | 65 | 1014.9 |
| 20260505183015 | 59 | 360 | 0.0 | 1.0 | 0.00 | 0.02 | 0.02 | 65 | 1014.8 |
| 20260505181509 | 61 | 360 | 0.0 | 2.0 | 0.00 | 0.02 | 0.02 | 67 | 1014.8 |
| 20260505180009 | 61 | 225 | 0.0 | 1.0 | 0.00 | 0.02 | 0.02 | 67 | 1014.9 |
| 20260505174513 | 62 | 360 | 0.0 | 2.0 | 0.00 | 0.02 | 0.02 | 66 | 1014.9 |
| 20260505173012 | 62 | 360 | 0.0 | 3.0 | 0.00 | 0.02 | 0.02 | 64 | 1014.9 |
| 20260505171510 | 62 | 182 | 1.0 | 3.0 | 0.00 | 0.02 | 0.02 | 63 | 1014.9 |
| 20260505170007 | 62 | 360 | 2.0 | 4.0 | 0.00 | 0.02 | 0.02 | 58 | 1015.2 |
| 20260505164506 | 63 | 360 | 1.0 | 4.0 | 0.00 | 0.02 | 0.02 | 60 | 1015.1 |
| 20260505163005 | 63 | 171 | 1.0 | 3.0 | 0.00 | 0.02 | 0.02 | 59 | 1015.1 |
| 20260505161504 | 64 | 209 | 2.0 | 5.0 | 0.00 | 0.02 | 0.02 | 58 | 1015.1 |